STARLINK-33672, 63326

Orbit data source: Space-Track

STARLINK-33672, 63326 is a payload satellite owned by SpaceX/Seattle (US) in LEO that was launched on Tue, 18 Mar 2025 UTC via an FALCON 9 launch vehicle from the Air Force Eastern Test Range (AFETR). Payload-class satellites include a variety of spacecraft equipped with specific instruments for various scientific and technological missions. These include communications satellites like Starlink; space stations such as the ISS; scientific satellites like the Hubble; Earth observation satellites from companies like Planet Labs, Umbra, and HawkEye 360; GPS; miniature CubeSats for education and research; and military/defense satellites.

Loading next visibility...
Identifier
63326, 2025-057V
Orbit
LEO
Country
Flag of USUS
Related business
Manufacturer
SpaceX/Seattle
Mission
Operational Commercial Communications
Bus & Motor
STARLINK V2MO, Unknown motor
Mass
575 kg wet, ~530 kg dry
Launch date (UTC)
2025-03-18 (11 months ago)
Launch vehicle
FALCON 9
Launch site
Air Force Eastern Test Range (AFETR)
Object type
Payload
Rocket body
Debris
Shape & HBR
Box + 2 Pan, 17.7 m
Radar Cross Section
36.964 m², Large (>1 m²)

Expand to show TLE details & history
Last TLE update: 7 hours ago

TLE from 7 hours ago
0 STARLINK-33672
1 63326U 25057V   26036.80357046  .00053663  00000-0  19418-2 0  9997
2 63326  43.0009 210.6716 0001895 288.0581  72.0064 15.27641312 50901
Epoch: 2026-02-05T19:17Z
TLE epoch observation values (Epoch: 2026-02-05T19:17:08.487Z)
Latitude
-0.00004°
Longitude
145.43564°
Altitude
482.24 km
Speed
7.626 km/s
True Right ascension
14h 02m 41s
True Declination
0° 00' 00"
Sunlit
Object was in daylight at epoch
Visualization orbit readout
Latitude
Unknown
Longitude
Unknown
Altitude
Unknown
Speed
Unknown
Apparent Right ascension
Unknown
Apparent Declination
Unknown
Sunlit
N/A
Visualization observer readout
Local Sidereal Time
04:38:46
Azimuth
Unknown
Elevation
Unknown
Doppler factor
Unknown
Orbital elements
Apogee altitude
486.111 km
Perigee altitude
483.51 km
Semi-major axis
6,862.948 km
Eccentricity
0.00019
Inclination
43.0009°
RAAN
210.6716°
Arg. of periapsis
288.0581°
True anomaly
72.02705°
Mean anomaly
72.0064°
Eccentric anomaly
72.01673°
Mean motion
3.81748 °/min
Orbital period
94.3 mins
BSTAR
0.0019418
Loading maneuver chart data...
Computing Atmospheric mass density...
Loading historical data...
Loading historical data...
Loading historical data...
Loading historical data...
Loading historical data...
Loading historical data...
Loading historical data...

Documentation

Showing up to 5 results
|